Regional Weather Roundup
Issued by NWS

Home | Current Version | Previous Version | Graphics & Text | Print | Product List | Glossary On
Versions: 1 2 3 4 5 6 7 8 9 10 11 12 13 14 15 16 17 18 19 20 21 22 23 24 25 26 27 28 29 30 31 32 33 34 35 36 37 38 39 40 41 42 43 44 45 46 47 48 49 50
000
ASUS43 KDTX 240510
RWRMI
MICHIGAN HOURLY REGIONAL WEATHER ROUNDUP
NATIONAL WEATHER SERVICE DETROIT/PONTIAC MI
100 AM EDT SUN MAY 24 2015

NOTE: "FAIR" INDICATES FEW OR NO CLOUDS BELOW 12,000 FEET WITH NO
SIGNIFICANT WEATHER AND/OR OBSTRUCTION TO VISIBILITY.

MIZ047>049-052>055-059>063-066>070-074>076-081>083-240600-
SOUTHEAST LOWER MICHIGAN

CITY           SKY/WX    TMP DP  RH WIND       PRES   REMARKS
ADRIAN         PTCLDY    55  47  74 E3        30.27F
ALMA           CLEAR     53  45  75 CALM      30.25F
ANN ARBOR      CLEAR     49  44  83 CALM      30.28S
BAD AXE        CLEAR     50  37  59 CALM      30.25S
CARO           CLEAR     45  41  88 CALM      30.25R
DETROIT CITY   CLEAR     58  39  49 S6        30.28F
DETROIT        CLEAR     59  46  62 CALM      30.28F
FLINT          CLEAR     56  42  59 CALM      30.26S
GROSSE ILE     CLEAR     57  45  62 CALM      30.26F
HILLSDALE      PTCLDY    61  45  54 SE6       30.27S
HOWELL         CLEAR     56  41  57 SE5       30.27S

CITY           SKY/WX    TMP DP  RH WIND       PRES   REMARKS
JACKSON        PTCLDY    58  45  62 SE3       30.27S
LAMBERTVILLE   CLEAR     54  46  76 CALM      30.27F
LANSING        CLEAR     56  47  71 CALM      30.26S
LAPEER         FAIR      47  42  82 CALM      30.26F
MASON          PTCLDY    55  43  65 S3        30.27S
MONROE         CLEAR     54  48  82 CALM      30.26S
MT. CLEMENS    CLEAR     50  44  79 CALM      30.25F
PONTIAC        CLEAR     58  39  49 CALM      30.27S
PORT HOPE        N/A     61  35  37 SW6       30.22S
PORT HURON     CLEAR     46  43  87 CALM      30.28S
TRI CITIES     CLEAR     60  39  45 S6        30.25R
MIDLAND        FAIR      49  42  78 CALM      30.23S
TROY           CLEAR     60  40  47 CALM      30.30S
SAGINAW HB     CLEAR     54  36  50 S6        30.24S
$$
MIZ043>046-050>051-056>058-064>065-071>073-077>080-240600-
SOUTHWEST LOWER MICHIGAN

CITY           SKY/WX    TMP DP  RH WIND       PRES   REMARKS
BATTLE CREEK   PTCLDY    58  49  72 CALM      30.25F
BENTON HARBOR  PTCLDY    53  47  79 E3        30.22F
BIG RAPIDS     CLEAR     49  41  75 CALM      30.24S
COLDWATER      PTCLDY    57  48  73 SE3       30.25S
FREMONT        FAIR      53  46  78 CALM      30.22F
HOLLAND        CLOUDY    60  48  64 CALM      30.23F
GRAND RAPIDS   PTCLDY    55  45  68 E3        30.24S
IONIA          FAIR      57  45  63 CALM      30.24S
KALAMAZOO      PTCLDY    57  47  69 CALM      30.24F
LUDINGTON      CLEAR     51  44  77 CALM      30.21F
MARSHALL       PTCLDY    56  48  73 CALM      30.25S
MOUNT PLEASANT CLEAR     52  46  80 CALM      30.23F
MUSKEGON       CLEAR     57  44  62 SE3       30.22F
SOUTH HAVEN    MOCLDY    58  47  66 CALM      30.22F
$$
MIZ016>042-240600-
NORTHERN LOWER MICHIGAN

CITY           SKY/WX    TMP DP  RH WIND       PRES   REMARKS
ALPENA         CLEAR     48  39  71 CALM      30.20R
BEAVER ISLAND  CLEAR     56  34  43 SW13G18   30.18S
BELLAIRE       CLEAR     45  42  89 CALM      30.20S
CADILLAC       CLEAR     47  40  76 CALM      30.23S
CHARLEVOIX     CLEAR     62  37  39 SW7       30.21S
FRANKFORT      CLEAR     58  36  43 CALM      30.20S
GAYLORD        CLEAR     54  36  50 SW3       30.21S
GRAYLING       CLEAR     41  34  75 CALM      30.23S
HARBOR SPRINGS CLEAR     53  40  61 CALM      30.18F
HOUGHTON LAKE  CLEAR     46  42  86 CALM      30.23S
MANISTEE       CLEAR     46  39  76 E5        30.22S
OSCODA         CLEAR     52  42  69 SW6       30.21S
PELLSTON       CLEAR     62  36  37 CALM      30.17F
ROGERS CITY    CLEAR     55  38  53 NE6       30.19R
TRAVERSE CITY  CLEAR     59  38  45 CALM      30.19S
$$
MIZ007>008-015-240600-
EASTERN UPPER MICHIGAN

CITY           SKY/WX    TMP DP  RH WIND       PRES   REMARKS
KINROSS        PTCLDY    52  36  54 W5        30.17S
MACKINAC ISLAN CLEAR     55  37  51 W9        30.17F
NEWBERRY       PTCLDY    52  37  54 SW13      30.14F
S. S. MARIE    CLEAR     53  34  48 SW6       30.15F
MUNISING         N/A     56  41  57 S9        30.12S
$$
MIZ004>006-011>014-085-240600-
CENTRAL UPPER MICHIGAN

CITY           SKY/WX    TMP DP  RH WIND       PRES   REMARKS
MANISTIQUE     CLEAR     44  38  79 W3        30.15S
ESCANABA       PTCLDY    57  39  51 W6        30.15S
MENOMINEE      CLOUDY    63  41  45 SW7       30.17S
SAWYER-GWINN   CLEAR     50  38  63 W3        30.16S
$$
MIZ001>003-009>011-084-240600-
WESTERN UPPER MICHIGAN

CITY           SKY/WX    TMP DP  RH WIND       PRES   REMARKS
IRON MOUNTAIN  MOCLDY    59  42  53 CALM      30.17R
HOUGHTON       CLEAR     64  40  41 W17       30.13R
COPPER HARBOR    N/A     56  36  47 SW10G16   30.11R
IRONWOOD       CLEAR     50  43  76 CALM      30.15R
$$

ABBREVIATIONS USED IN REMARKS
   TC - TEMPERATURE IN CELSIUS
  WCI - WIND CHILL INDEX
   HX - HEAT INDEX
  VSB - VISIBILITY




USA.gov is the U.S. government's official web portal to all federal, state and local government web resources and services.